Location: Leedale
(52.5833°N, 114.4833°W)
Time: 15:49:42
(UTC+00:00)

Envisat - Pass Details

Date: 14 August 2024
Orbit: 762 x 764 km, 98.3° (Epoch: 09 September)

Event Time Altitude Azimuth Distance (km) Brightness Sun altitude
Rises 09:17:18 0° 29° (NNE) 3,240 7.8 -20.2°
Reaches altitude 10° 09:21:04 10° 58° (ENE) 2,307 6.3 -20.0°
Maximum altitude 09:23:16 13° 84° (E) 2,117 5.7 -19.8°
Drops below altitude 10° 09:25:28 10° 110° (ESE) 2,299 5.5 -19.7°
Enters shadow 09:29:09 - 138° (SE) 3,203 6.0 -19.4°
